Home   Weather   Kashgar   Past weeks

Flag for China Past Weather in Kashgar, Xinjiang, China — Yesterday and Last 2 Weeks

Now
75 °F

Sunny.


Feels Like: 75 °F
Forecast: 57 / 80 °F
Wind: 15 mph from Northwest

Location: Kashi Airport

Current Time: Apr 27, 2017 at 11:42:07 am

Latest Report: Apr 27, 2017 at 11:00 am


Visibility: 10 mi

Pressure: 30.01 "Hg (25.85 "Hg at 1298m altitude)

Humidity: 11%

Dew Point: 18 °F

Location of KashgarLocation

Past Weather in Kashgar — Graph

°F

Kashgar Temperature Yesterday

Maximum temperature yesterday: 82 °F (at 6:00 pm)
Minimum temperature yesterday: 54 °F (at 8:00 am)
Average temperature yesterday: 68 °F

High & Low Weather Summary for the Past Weeks

 TemperatureHumidityPressure
High84 °F (Apr 17, 7:00 pm)82% (Apr 19, 10:00 am)30.27 "Hg (Apr 19, 10:00 am)
Low50 °F (Apr 15, 7:00 am)4% (Apr 14, 11:00 pm)29.80 "Hg (Apr 17, 8:00 pm)
Average65 °F31%30.05 "Hg
* Reported Apr 12 9:00 am — Apr 27 9:00 am, Kashgar, Weather by CustomWeather, © 2017

Note: Actual official high and low records may vary slightly from our data, if they occured in-between our weather recording intervals... More about our weather records

Advertising

Kashgar Weather History for the Previous 24 Hours

Scroll right to see more
 ConditionsComfort  
Time TempWeatherWind HumidityBarometerVisibility
9:00 am
Thu, Apr 27
66 °FSunny.15 mph15%29.98 "Hg10 mi
8:00 am64 °FSunny.13 mph15%29.98 "Hg10 mi
7:00 am66 °FSunny.10 mph14%29.95 "Hg10 mi
6:00 am66 °FClear.13 mph14%29.95 "Hg10 mi
5:00 am66 °FClear.13 mph14%29.95 "Hg10 mi
4:00 am66 °FClear.10 mph14%29.95 "Hg10 mi
3:00 am66 °FClear.13 mph14%29.95 "Hg10 mi
2:00 am68 °FClear.13 mph14%29.95 "Hg10 mi
1:00 am68 °FClear.13 mph13%29.95 "Hg10 mi
12:00 am70 °FClear.3 mph16%29.95 "Hg10 mi
11:00 pm
Wed, Apr 26
70 °FClear.3 mph20%29.95 "Hg10 mi
10:00 pm75 °FClear.No wind14%29.92 "Hg10 mi
9:00 pm79 °FClear.6 mph12%29.92 "Hg10 mi
8:00 pm81 °FClear.6 mph10%29.92 "Hg10 mi
7:00 pm81 °FPassing clouds.8 mph11%29.92 "HgN/A
6:00 pm82 °FSunny.3 mph11%29.92 "Hg10 mi
5:00 pm79 °FSunny.3 mph12%29.95 "Hg10 mi
4:00 pm79 °FPassing clouds.3 mph11%29.98 "HgN/A
3:00 pm75 °FPassing clouds.6 mph16%29.98 "HgN/A
2:00 pm75 °FSunny.1 mph18%30.01 "Hg10 mi
1:00 pm72 °FPassing clouds.6 mph22%30.04 "HgN/A
12:00 pm68 °FPassing clouds.3 mph23%30.04 "HgN/A
11:00 am64 °FPassing clouds.3 mph26%30.07 "HgN/A
Weather by CustomWeather, © 2017

See weather overviewHow to use our weather pages